BAW246 SBGR-EGLL

Flight info

Callsign BAW246
Flight time N/A
Altitude 35000
Route AMVUL6A VUMEV UZ14 NITLU UZ3 UTLEV UZ88 PABES UZ4 UKAVA UZ51 MOTBU DCT MOVGA/N0495F370 DCT BIKOM/M085F370 DCT ULTEM DCT 25N028W 30N026W 35N024W/M085F390 40N020W DCT GONAN DCT TAMEL DCT EVBAK DCT GAPLI/N0488F390 DCT SIDDI DCT DAWLY DCT ELRIP DCT OTMET OTMET1H
Aircraft A35K/H-SBDE1E2E3GHIJ1J3J4J5J6M1M2P2RWXYZ/LB1D1

Departure

Time 2026-05-06 18:11
Airport São Paulo/Guarulhos–Governor André Franco Montoro International Airport (SBGR)

Arrival

Time N/A
Airport London Heathrow Airport (EGLL)
Time Latitude Longitude Altitude Speed Heading
2026-05-06 16:58 -23.42509 -46.47331 2474 ft 0 kts 253°
2026-05-06 17:59 -23.42509 -46.47332 2474 ft 2 kts 253°
2026-05-06 17:59 -23.42519 -46.47369 2474 ft 5 kts 253°
2026-05-06 18:00 -23.42509 -46.47331 2474 ft 0 kts 253°
2026-05-06 18:02 -23.42506 -46.47320 2477 ft 4 kts 253°
2026-05-06 18:02 -23.42498 -46.47292 2485 ft 4 kts 253°
2026-05-06 18:02 -23.42492 -46.47269 2502 ft 4 kts 243°
2026-05-06 18:02 -23.42476 -46.47248 2473 ft 4 kts 207°
2026-05-06 18:03 -23.42452 -46.47243 2474 ft 3 kts 164°
2026-05-06 18:03 -23.42427 -46.47251 2476 ft 4 kts 163°
2026-05-06 18:03 -23.42412 -46.47256 2474 ft 3 kts 163°
2026-05-06 18:05 -23.42425 -46.47252 2475 ft 4 kts 165°
2026-05-06 18:06 -23.42470 -46.47238 2476 ft 9 kts 163°
2026-05-06 18:06 -23.42545 -46.47213 2474 ft 13 kts 163°
2026-05-06 18:06 -23.42639 -46.47182 2474 ft 17 kts 163°
2026-05-06 18:06 -23.42751 -46.47146 2474 ft 17 kts 163°
2026-05-06 18:07 -23.42820 -46.47129 2474 ft 7 kts 187°
2026-05-06 18:07 -23.42856 -46.47178 2474 ft 13 kts 247°
2026-05-06 18:07 -23.42889 -46.47295 2474 ft 19 kts 253°
2026-05-06 18:07 -23.42931 -46.47448 2474 ft 23 kts 254°
2026-05-06 18:08 -23.42976 -46.47617 2474 ft 23 kts 253°
2026-05-06 18:08 -23.43021 -46.47787 2474 ft 23 kts 254°
2026-05-06 18:08 -23.43069 -46.47956 2474 ft 23 kts 253°
2026-05-06 18:08 -23.43115 -46.48126 2474 ft 23 kts 253°
2026-05-06 18:09 -23.43154 -46.48280 2474 ft 12 kts 254°
2026-05-06 18:09 -23.43178 -46.48359 2474 ft 10 kts 246°
2026-05-06 18:09 -23.43226 -46.48384 2474 ft 8 kts 175°
2026-05-06 18:09 -23.43279 -46.48371 2475 ft 8 kts 166°
2026-05-06 18:10 -23.43335 -46.48355 2476 ft 9 kts 162°
2026-05-06 18:10 -23.43391 -46.48333 2476 ft 9 kts 154°
2026-05-06 18:10 -23.43411 -46.48276 2475 ft 9 kts 82°
2026-05-06 18:10 -23.43394 -46.48209 2475 ft 11 kts 72°
2026-05-06 18:11 -23.43325 -46.47956 2476 ft 67 kts 73°
2026-05-06 18:11 -23.43128 -46.47221 2475 ft 133 kts 73°
2026-05-06 18:11 -23.42810 -46.46048 2493 ft 187 kts 73°
2026-05-06 18:11 -23.42416 -46.44747 3349 ft 177 kts 70°
2026-05-06 18:12 -23.42004 -46.43481 3910 ft 186 kts 70°
2026-05-06 18:12 -23.41586 -46.42090 4143 ft 201 kts 73°
2026-05-06 18:12 -23.41169 -46.40567 4340 ft 218 kts 75°
2026-05-06 18:12 -23.40720 -46.38929 4575 ft 235 kts 73°
2026-05-06 18:13 -23.40218 -46.37157 4834 ft 253 kts 72°
2026-05-06 18:13 -23.39484 -46.35390 5289 ft 261 kts 60°
2026-05-06 18:13 -23.38516 -46.33672 5814 ft 268 kts 58°
2026-05-06 18:13 -23.37510 -46.31956 6496 ft 270 kts 58°
2026-05-06 18:14 -23.36500 -46.30230 7122 ft 272 kts 58°
2026-05-06 18:14 -23.35494 -46.28504 7731 ft 275 kts 58°
2026-05-06 18:14 -23.34466 -46.26738 8396 ft 277 kts 58°
2026-05-06 18:14 -23.33436 -46.24961 9109 ft 279 kts 57°
2026-05-06 18:15 -23.32392 -46.23160 9779 ft 283 kts 57°
2026-05-06 18:15 -23.31333 -46.21336 10377 ft 288 kts 57°
2026-05-06 18:15 -23.30232 -46.19437 10716 ft 304 kts 58°
2026-05-06 18:15 -23.29071 -46.17440 10985 ft 321 kts 58°
2026-05-06 18:16 -23.27849 -46.15335 11249 ft 336 kts 58°
2026-05-06 18:16 -23.26576 -46.13142 11509 ft 350 kts 58°
2026-05-06 18:16 -23.25250 -46.10861 11764 ft 363 kts 58°
2026-05-06 18:16 -23.23877 -46.08499 12009 ft 375 kts 58°
2026-05-06 18:17 -23.22450 -46.06123 12308 ft 384 kts 54°
2026-05-06 18:17 -23.20556 -46.04051 12671 ft 391 kts 36°
2026-05-06 18:17 -23.18110 -46.02716 13122 ft 396 kts 22°
2026-05-06 18:17 -23.15499 -46.01704 13534 ft 401 kts 20°
2026-05-06 18:18 -23.12824 -46.00781 13934 ft 406 kts 14°
2026-05-06 18:18 -23.10026 -46.00277 14295 ft 410 kts
2026-05-06 18:18 -23.07180 -45.99939 14651 ft 413 kts
2026-05-06 18:18 -23.04299 -45.99607 15024 ft 417 kts
2026-05-06 18:19 -23.01405 -45.99267 15384 ft 420 kts
2026-05-06 18:19 -22.98493 -45.98920 15787 ft 422 kts
2026-05-06 18:19 -22.95567 -45.98568 16173 ft 425 kts
2026-05-06 18:19 -22.92611 -45.98196 16560 ft 428 kts
2026-05-06 18:20 -22.89689 -45.97538 16914 ft 430 kts 18°
2026-05-06 18:20 -22.86921 -45.96293 17288 ft 431 kts 30°
2026-05-06 18:20 -22.84372 -45.94645 17673 ft 433 kts 34°
2026-05-06 18:20 -22.81863 -45.92818 18024 ft 436 kts 36°
2026-05-06 18:21 -22.79378 -45.90911 18373 ft 439 kts 37°
2026-05-06 18:21 -22.76888 -45.88971 18702 ft 442 kts 37°
2026-05-06 18:21 -22.74377 -45.87021 19030 ft 444 kts 37°
2026-05-06 18:21 -22.71852 -45.85078 19332 ft 447 kts 36°
2026-05-06 18:22 -22.69300 -45.83135 19676 ft 449 kts 36°
2026-05-06 18:22 -22.66730 -45.81194 20012 ft 451 kts 36°
2026-05-06 18:22 -22.64151 -45.79255 20343 ft 454 kts 36°
2026-05-06 18:22 -22.61551 -45.77304 20696 ft 456 kts 35°
2026-05-06 18:23 -22.58936 -45.75345 21079 ft 458 kts 35°
2026-05-06 18:23 -22.56310 -45.73378 21434 ft 461 kts 35°
2026-05-06 18:23 -22.53663 -45.71394 21817 ft 463 kts 35°
2026-05-06 18:23 -22.51008 -45.69404 22158 ft 466 kts 35°
2026-05-06 18:24 -22.48332 -45.67400 22532 ft 469 kts 35°
2026-05-06 18:24 -22.45645 -45.65387 22896 ft 472 kts 35°
2026-05-06 18:24 -22.42972 -45.63386 23269 ft 475 kts 35°
2026-05-06 18:24 -22.40247 -45.61347 23647 ft 477 kts 35°
2026-05-06 18:25 -22.37506 -45.59297 23965 ft 481 kts 35°
2026-05-06 18:25 -22.34743 -45.57232 24234 ft 484 kts 35°
2026-05-06 18:25 -22.31969 -45.55159 24602 ft 486 kts 35°
2026-05-06 18:25 -22.29172 -45.53070 24917 ft 490 kts 35°
2026-05-06 18:26 -22.26357 -45.50969 25237 ft 494 kts 35°
2026-05-06 18:26 -22.23518 -45.48851 25553 ft 498 kts 35°
2026-05-06 18:26 -22.20655 -45.46717 25883 ft 502 kts 35°
2026-05-06 18:26 -22.17772 -45.44568 26206 ft 506 kts 35°
2026-05-06 18:27 -22.14861 -45.42401 26523 ft 509 kts 35°
2026-05-06 18:27 -22.11940 -45.40226 26884 ft 512 kts 35°
2026-05-06 18:27 -22.08999 -45.38037 27189 ft 516 kts 35°
2026-05-06 18:27 -22.06070 -45.35858 27507 ft 520 kts 35°
2026-05-06 18:28 -22.03084 -45.33636 27817 ft 523 kts 35°
2026-05-06 18:28 -22.00140 -45.31315 28135 ft 526 kts 38°
2026-05-06 18:28 -21.97256 -45.28874 28424 ft 529 kts 40°
2026-05-06 18:28 -21.94377 -45.26374 28706 ft 532 kts 40°
2026-05-06 18:29 -21.91486 -45.23856 28977 ft 535 kts 40°
2026-05-06 18:29 -21.88572 -45.21339 29287 ft 538 kts 40°
2026-05-06 18:29 -21.85630 -45.18824 29560 ft 541 kts 40°
2026-05-06 18:29 -21.82667 -45.16310 29833 ft 544 kts 39°
2026-05-06 18:30 -21.79694 -45.13804 30203 ft 544 kts 39°
2026-05-06 18:30 -21.76702 -45.11288 30510 ft 544 kts 39°
2026-05-06 18:30 -21.73749 -45.08809 30784 ft 545 kts 39°
2026-05-06 18:30 -21.70761 -45.06302 31076 ft 546 kts 39°
2026-05-06 18:31 -21.67764 -45.03786 31340 ft 547 kts 39°
2026-05-06 18:31 -21.64754 -45.01261 31612 ft 548 kts 39°
2026-05-06 18:31 -21.61749 -44.98740 31892 ft 548 kts 40°
2026-05-06 18:31 -21.58735 -44.96212 32175 ft 549 kts 40°
2026-05-06 18:32 -21.55725 -44.93689 32388 ft 550 kts 40°
2026-05-06 18:32 -21.52700 -44.91155 32620 ft 552 kts 40°
2026-05-06 18:32 -21.49669 -44.88618 32861 ft 552 kts 40°
2026-05-06 18:32 -21.46640 -44.86084 33103 ft 552 kts 40°
2026-05-06 18:33 -21.43609 -44.83549 33342 ft 554 kts 40°
2026-05-06 18:33 -21.40562 -44.81002 33522 ft 555 kts 40°
2026-05-06 18:33 -21.37519 -44.78460 33800 ft 555 kts 40°
2026-05-06 18:33 -21.34469 -44.75916 34068 ft 555 kts 40°
2026-05-06 18:34 -21.31418 -44.73371 34230 ft 556 kts 40°
2026-05-06 18:34 -21.28403 -44.70854 34422 ft 556 kts 40°
2026-05-06 18:34 -21.25353 -44.68307 34639 ft 556 kts 40°
2026-05-06 18:34 -21.22302 -44.65761 34804 ft 557 kts 40°
2026-05-06 18:35 -21.19238 -44.63211 34941 ft 558 kts 40°
2026-05-06 18:35 -21.16170 -44.60656 35116 ft 559 kts 40°
2026-05-06 18:35 -21.09996 -44.55513 35138 ft 563 kts 40°
2026-05-06 18:36 -21.04857 -44.51240 35139 ft 562 kts 40°
2026-05-06 18:36 -20.98674 -44.46105 35141 ft 563 kts 40°
2026-05-06 18:37 -20.92481 -44.40973 35152 ft 562 kts 40°
2026-05-06 18:37 -20.86306 -44.35858 35138 ft 561 kts 40°
2026-05-06 18:38 -20.80124 -44.30743 35149 ft 562 kts 40°
2026-05-06 18:38 -20.73937 -44.25629 35147 ft 562 kts 40°
2026-05-06 18:39 -20.67752 -44.20517 35152 ft 561 kts 40°
2026-05-06 18:40 -20.58542 -44.12878 35149 ft 560 kts 40°
2026-05-06 18:40 -20.52105 -44.08165 35146 ft 563 kts 26°
2026-05-06 18:40 -20.48470 -44.06641 35138 ft 562 kts 14°
2026-05-06 18:41 -20.44637 -44.05828 35148 ft 561 kts
2026-05-06 18:41 -20.36864 -44.04970 35139 ft 562 kts
2026-05-06 18:42 -20.29111 -44.04356 35137 ft 562 kts
2026-05-06 18:42 -20.21306 -44.03721 35137 ft 563 kts
2026-05-06 18:43 -20.13478 -44.03036 35127 ft 564 kts
2026-05-06 18:43 -20.05677 -44.02266 35115 ft 562 kts
2026-05-06 18:44 -19.97962 -44.00861 35107 ft 563 kts
2026-05-06 18:44 -19.90259 -43.99289 35102 ft 564 kts
2026-05-06 18:45 -19.82594 -43.97818 35102 ft 564 kts
2026-05-06 18:45 -19.74863 -43.96408 35102 ft 564 kts
2026-05-06 18:46 -19.67108 -43.95014 35212 ft 565 kts
2026-05-06 18:46 -19.59338 -43.93617 35210 ft 566 kts
2026-05-06 18:47 -19.51570 -43.92218 35201 ft 567 kts
2026-05-06 18:47 -19.43783 -43.90815 35172 ft 567 kts
2026-05-06 18:48 -19.36042 -43.89420 35141 ft 567 kts
2026-05-06 18:48 -19.28245 -43.88017 35113 ft 568 kts
2026-05-06 18:49 -19.20433 -43.86612 35110 ft 568 kts
2026-05-06 18:49 -19.12677 -43.85213 35109 ft 568 kts
2026-05-06 18:50 -19.04873 -43.83815 35108 ft 569 kts
2026-05-06 18:50 -18.97057 -43.82418 35118 ft 568 kts
2026-05-06 18:51 -18.89275 -43.81027 35117 ft 566 kts
2026-05-06 18:51 -18.81511 -43.79636 35116 ft 567 kts
2026-05-06 18:52 -18.73737 -43.78248 35110 ft 565 kts
2026-05-06 18:52 -18.66019 -43.76870 35112 ft 565 kts
2026-05-06 18:53 -18.58256 -43.75485 35113 ft 567 kts
2026-05-06 18:53 -18.50464 -43.74097 35117 ft 568 kts
2026-05-06 18:54 -18.42667 -43.72708 35118 ft 568 kts
2026-05-06 18:54 -18.34924 -43.71329 35119 ft 568 kts
2026-05-06 18:55 -18.27123 -43.69944 35116 ft 569 kts
2026-05-06 18:55 -18.19306 -43.68557 35116 ft 569 kts
2026-05-06 18:56 -18.11464 -43.67394 35111 ft 567 kts 359°
2026-05-06 18:56 -18.03629 -43.67966 35105 ft 563 kts 349°
2026-05-06 18:57 -17.95856 -43.69076 35109 ft 562 kts 348°
2026-05-06 18:57 -17.88137 -43.70265 35104 ft 563 kts 348°
2026-05-06 18:58 -17.80368 -43.71438 35097 ft 564 kts 348°
2026-05-06 18:58 -17.72583 -43.72584 35088 ft 565 kts 348°
2026-05-06 18:59 -17.64798 -43.73719 35076 ft 565 kts 348°
2026-05-06 18:59 -17.57006 -43.74856 35079 ft 565 kts 348°
2026-05-06 19:00 -17.49216 -43.75993 35073 ft 565 kts 348°